Terminal Aerodrome Forecast
Issued by NWS Upton, NY

Home | Current Version | Previous Version | Text Only | Print | Product List | Glossary On
Versions: 1 2 3 4 5 6 7 8 9 10 11 12 13 14 15 16 17 18 19 20 21 22 23 24 25 26 27 28 29 30 31 32 33 34 35
000
FTUS41 KOKX 281726
TAFISP
TAF
KISP 281726Z 2818/2918 33018G25KT 2SM -SN OVC015
     FM282000 33015G25KT P6SM OVC015
      TEMPO 2820/2822 3SM -SN
     FM282200 33013G19KT 3SM -SN OVC025
     FM290400 34012G18KT P6SM BKN035 OVC120
     FM291000 35014KT P6SM BKN050 BKN250
     FM291300 35012KT P6SM SCT250=

USA.gov is the U.S. government's official web portal to all federal, state and local government web resources and services.